New Iberia, LA

12:03 PM CDT on July 24, 2017 (GMT -0500)
Acadiana Regional

Weather History for KARA - March, 2013

Change the Weather History Date:

Wednesday, March 6, 2013

  Actual Average Record
Temperature  
Mean Temperature 54 °F 60 °F  
Max Temperature 66 °F 70 °F 85 °F (1955)
Min Temperature 41 °F 50 °F 27 °F (1989)
Degree Days  
Heating Degree Days 11 6  
Month to date heating degree days 74 40  
Since 1 July heating degree days 961 1256  
Cooling Degree Days 0 1  
Month to date cooling degree days 1 6  
Year to date cooling degree days 49 37  
Growing Degree Days 4 (Base 50)    
Moisture  
Dew Point 29 °F    
Average Humidity 42    
Maximum Humidity 60    
Minimum Humidity 23    
Precipitation  
Precipitation 0.00 in 0.15 in 1.13 in (1969)
Month to date precipitation T 0.86  
Year to date precipitation 16.75 10.27  
Sea Level Pressure  
Sea Level Pressure 30.30 in    
Wind  
Wind Speed 8 mph (North)    
Max Wind Speed 18 mph    
Max Gust Speed 23 mph    
Visibility 10 miles    
Events      
T = Trace of Precipitation, MM = Missing Value Source: NWS Daily Summary

Daily Weather History Graph

Daily Weather History Graph

Search for Another Location

Airport or City:

Trip Planner

Search our weather history database for the weather conditions in past years. The results will help you decide how hot, cold, wet, or windy it might be!

Date:

Astronomy

Mar. 06, 2013 Rise Set
Actual Time 6:27 AM CST 6:10 PM CST
Civil Twilight 6:03 AM CST 6:34 PM CST
Nautical Twilight 5:35 AM CST 7:01 PM CST
Astronomical Twilight 5:08 AM CST 7:29 PM CST
Moon 2:19 AM CST (3/6) 1:09 PM CST (3/6)
Length of Visible Light 12h 30m
Length of Day
11h 42m
Waning Crescent, 29% of the Moon is Illuminated
Mar 6
Waning Crescent
Mar 11
New
Mar 19
First Quarter
Mar 27
Full
Apr 2
Last Quarter

Hourly Weather History & Observations

Time (CST) Temp. Windchill Dew Point Humidity Pressure Visibility Wind Dir Wind Speed Gust Speed Precip Events Conditions
12:53 AM 52.0 °F - 28.0 °F 40% 30.26 in 10.0 mi North 15.0 mph - N/A   Clear
1:53 AM 50.0 °F - 27.0 °F 41% 30.27 in 10.0 mi North 13.8 mph - N/A   Clear
2:53 AM 46.0 °F 41.4 °F 27.0 °F 47% 30.27 in 10.0 mi North 9.2 mph - N/A   Clear
3:53 AM 44.1 °F 40.8 °F 30.0 °F 58% 30.29 in 10.0 mi NNW 5.8 mph - N/A   Clear
4:53 AM 43.0 °F 39.5 °F 27.0 °F 53% 30.31 in 10.0 mi North 5.8 mph - N/A   Clear
6:53 AM 43.0 °F 39.5 °F 27.0 °F 53% 30.35 in 10.0 mi North 5.8 mph - N/A   Clear
7:53 AM 48.0 °F - 28.9 °F 48% 30.38 in 10.0 mi North 8.1 mph - N/A   Clear
8:53 AM 51.1 °F - 26.1 °F 38% 30.37 in 10.0 mi NNE 11.5 mph - N/A   Clear
9:53 AM 55.0 °F - 27.0 °F 34% 30.37 in 10.0 mi North 8.1 mph - N/A   Clear
10:53 AM 57.0 °F - 27.0 °F 32% 30.36 in 10.0 mi North 10.4 mph - N/A   Clear
11:53 AM 60.1 °F - 27.0 °F 28% 30.34 in 10.0 mi Variable 6.9 mph - N/A   Clear
12:53 PM 63.0 °F - 25.0 °F 24% 30.31 in 10.0 mi North - - N/A   Clear
1:53 PM 64.9 °F - 26.1 °F 23% 30.28 in 10.0 mi North 10.4 mph 18.4 mph N/A   Clear
2:53 PM 64.9 °F - 28.0 °F 25% 30.26 in 10.0 mi Variable 6.9 mph - N/A   Clear
3:53 PM 64.9 °F - 26.1 °F 23% 30.25 in 10.0 mi North 11.5 mph - N/A   Clear
4:53 PM 63.0 °F - 28.0 °F 27% 30.25 in 10.0 mi NNW 10.4 mph - N/A   Clear
5:53 PM 57.0 °F - 28.0 °F 33% 30.26 in 10.0 mi North 8.1 mph - N/A   Clear
6:53 PM 53.1 °F - 28.0 °F 38% 30.27 in 10.0 mi NNE 4.6 mph - N/A   Clear
7:53 PM 51.1 °F - 35.1 °F 54% 30.28 in 10.0 mi Calm Calm - N/A   Clear
8:53 PM 50.0 °F - 35.1 °F 57% 30.28 in 10.0 mi Calm Calm - N/A   Clear
9:53 PM 46.9 °F - 34.0 °F 61% 30.28 in 10.0 mi NE 3.5 mph - N/A   Clear
10:53 PM 48.9 °F - 30.9 °F 50% 30.28 in 10.0 mi ENE 6.9 mph - N/A   Clear
11:53 PM 48.9 °F - 30.9 °F 50% 30.26 in 10.0 mi ENE 8.1 mph - N/A   Clear